Ithaca, NY

7:23 PM EDT on April 28, 2017 (GMT -0400)
Tompkins County

Weather History for KITH - April, 2014

Change the Weather History Date:

Friday, April 11, 2014

  Actual Average Record
Temperature  
Mean Temperature 46 °F -  
Max Temperature 57 °F 48 °F 78 °F (1945)
Min Temperature 35 °F 28 °F 18 °F (1970)
Degree Days  
Heating Degree Days 19    
Moisture  
Dew Point 42 °F    
Average Humidity 87    
Maximum Humidity 100    
Minimum Humidity 37    
Precipitation  
Precipitation 0.00 in - - ()
Sea Level Pressure  
Sea Level Pressure 30.01 in    
Wind  
Wind Speed 5 mph (NNW)    
Max Wind Speed 13 mph    
Max Gust Speed -    
Visibility 7 miles    
Events Rain    
Averages and records for this station are not official NWS values.
T = Trace of Precipitation, MM = Missing Value Source: NWS Daily Summary

Daily Weather History Graph

Daily Weather History Graph

Search for Another Location

Airport or City:

Trip Planner

Search our weather history database for the weather conditions in past years. The results will help you decide how hot, cold, wet, or windy it might be!

Date:

Astronomy

Apr. 11, 2014 Rise Set
Actual Time 6:31 AM EDT 7:43 PM EDT
Civil Twilight 6:02 AM EDT 8:12 PM EDT
Nautical Twilight 5:27 AM EDT 8:46 PM EDT
Astronomical Twilight 4:51 AM EDT 9:23 PM EDT
Moon 4:17 PM EDT (4/11) 4:29 AM EDT (4/11)
Length of Visible Light 14h 09m
Length of Day
13h 11m
Waxing Gibbous, 87% of the Moon is Illuminated
Apr 11
Waxing Gibbous
Apr 15
Full
Apr 22
Last Quarter
Apr 29
New
May 6
First Quarter

Hourly Weather History & Observations

Time (EDT) Temp. Windchill Dew Point Humidity Pressure Visibility Wind Dir Wind Speed Gust Speed Precip Events Conditions
12:56 AM 57.9 °F - 32.0 °F 37% 29.85 in 10.0 mi South 6.9 mph - N/A   Overcast
1:49 AM 55.4 °F - 44.6 °F 67% 29.90 in 10.0 mi NNW 12.7 mph - N/A   Overcast
1:56 AM 55.9 °F - 45.9 °F 69% 29.90 in 10.0 mi NNW 12.7 mph - N/A   Overcast
2:56 AM 52.0 °F - 48.9 °F 89% 29.91 in 10.0 mi Calm Calm - 0.00 in Rain Light Rain
3:56 AM 50.0 °F - 48.9 °F 96% 29.92 in 7.0 mi South 3.5 mph - 0.00 in Rain Light Rain
4:19 AM 50.0 °F - 48.2 °F 94% 29.93 in 4.0 mi Calm Calm - 0.00 in Rain Light Rain
4:31 AM 51.8 °F - 50.0 °F 94% 29.94 in 9.0 mi West 4.6 mph - 0.00 in Rain Light Rain
4:48 AM 51.8 °F - 50.0 °F 94% 29.94 in 8.0 mi North 4.6 mph - 0.00 in Rain Light Rain
4:56 AM 50.9 °F - 50.0 °F 97% 29.94 in 9.0 mi North 6.9 mph - 0.00 in Rain Light Rain
5:07 AM 50.0 °F - 48.2 °F 94% 29.93 in 10.0 mi North 4.6 mph - 0.00 in Rain Light Rain
5:42 AM 50.0 °F - 46.4 °F 87% 29.96 in 10.0 mi North 8.1 mph - 0.00 in   Overcast
5:56 AM 48.9 °F - 46.9 °F 93% 29.97 in 10.0 mi NNW 5.8 mph - 0.00 in   Overcast
6:10 AM 48.2 °F - 46.4 °F 93% 29.98 in 10.0 mi NNW 8.1 mph - N/A   Overcast
6:25 AM 48.2 °F - 46.4 °F 93% 29.99 in 10.0 mi NNW 5.8 mph - N/A   Overcast
6:29 AM 48.2 °F - 46.4 °F 93% 29.99 in 10.0 mi NNW 6.9 mph - N/A   Overcast
6:56 AM 47.8 °F - 45.9 °F 93% 30.01 in 10.0 mi NNW 3.5 mph - 0.00 in Rain Light Rain
7:56 AM 48.9 °F - 45.0 °F 86% 30.03 in 10.0 mi North 5.8 mph - 0.00 in   Partly Cloudy
8:27 AM 50.0 °F - 46.4 °F 87% 30.04 in 10.0 mi NNW 9.2 mph - N/A   Overcast
8:56 AM 50.0 °F - 43.9 °F 79% 30.04 in 10.0 mi North 3.5 mph - N/A   Overcast
9:06 AM 51.8 °F - 44.6 °F 76% 30.04 in 10.0 mi NNW 4.6 mph - N/A   Mostly Cloudy
9:47 AM 51.8 °F - 39.2 °F 62% 30.03 in 10.0 mi NNW 6.9 mph - N/A   Mostly Cloudy
9:56 AM 52.0 °F - 39.9 °F 63% 30.03 in 10.0 mi Variable 4.6 mph - N/A   Partly Cloudy
10:56 AM 52.0 °F - 41.0 °F 66% 30.05 in 10.0 mi WNW 6.9 mph - N/A   Overcast
11:56 AM 52.0 °F - 41.0 °F 66% 30.04 in 10.0 mi Calm Calm - N/A   Overcast
12:56 PM 52.0 °F - 39.9 °F 63% 30.04 in 10.0 mi NW 5.8 mph - N/A   Mostly Cloudy
1:56 PM 48.9 °F - 37.9 °F 66% 30.04 in 6.0 mi Calm Calm - 0.00 in Rain Light Rain
2:56 PM 47.8 °F - 43.9 °F 86% 30.02 in 10.0 mi SSW 5.8 mph - 0.00 in Rain Light Rain
3:56 PM 48.9 °F - 43.9 °F 83% 30.03 in 10.0 mi WSW 4.6 mph - 0.00 in Rain Light Rain
4:56 PM 47.8 °F - 45.0 °F 90% 30.03 in 10.0 mi SW 6.9 mph - 0.00 in Rain Light Rain
5:03 PM 48.2 °F - 44.6 °F 87% 30.02 in 10.0 mi SSW 4.6 mph - 0.00 in   Overcast
5:56 PM 47.8 °F - 45.0 °F 90% 30.04 in 10.0 mi Calm Calm - 0.00 in   Mostly Cloudy
6:56 PM 47.8 °F - 45.0 °F 90% 30.05 in 10.0 mi Calm Calm - N/A   Mostly Cloudy
7:56 PM 45.0 °F 43.5 °F 43.0 °F 93% 30.05 in 10.0 mi SSE 3.5 mph - N/A   Scattered Clouds
8:56 PM 41.9 °F 38.2 °F 41.0 °F 97% 30.06 in 10.0 mi SSE 5.8 mph - N/A   Clear
9:56 PM 36.0 °F - 36.0 °F 100% 30.07 in 2.0 mi Calm Calm - N/A   Clear
10:03 PM 37.4 °F - 35.6 °F 93% 30.05 in 1.2 mi Calm Calm - N/A   Clear
10:09 PM 37.4 °F - 37.4 °F 100% 30.05 in 2.0 mi Calm Calm - N/A   Clear
10:23 PM 37.4 °F - 37.4 °F 100% 30.05 in 4.0 mi Calm Calm - N/A   Clear
10:26 PM 37.4 °F - 37.4 °F 100% 30.06 in 1.8 mi Calm Calm - N/A   Clear
10:35 PM 35.6 °F - 35.6 °F 100% 30.06 in 1.2 mi Calm Calm - N/A   Clear
10:38 PM 35.6 °F - 35.6 °F 100% 30.06 in 0.8 mi Calm Calm - N/A   Clear
10:56 PM 36.0 °F - 34.9 °F 96% 30.08 in 1.0 mi Calm Calm - N/A   Clear
11:01 PM 35.6 °F - 35.6 °F 100% 30.06 in 1.5 mi Calm Calm - N/A   Clear
11:10 PM 37.4 °F - 37.4 °F 100% 30.06 in 2.0 mi Calm Calm - N/A   Clear
11:46 PM 35.6 °F 32.8 °F 33.8 °F 93% 30.06 in 1.5 mi East 3.5 mph - N/A   Clear
11:56 PM 36.0 °F 31.1 °F 34.9 °F 96% 30.09 in 1.2 mi East 5.8 mph - N/A   Mostly Cloudy
11:58 PM 35.6 °F 31.7 °F 35.6 °F 100% 30.06 in 0.8 mi East 4.6 mph - N/A   Mist